Lid_Strength_Index
0 2 2 5 10 12 14 12 12 11 11 10 8 9 9 8 9 11 5 2 1 0 0 -0 -1 -1 -1 -1 -1 -1 -1 -1 -2 -2 -2 -1 -1 -1 -1 -1 -1 -1 -1 -1 -1 -1 -1 -1 -1
3 2 4 8 12 15 13 12 12 11 9 9 9 9 9 9 6 5 4 2 1 0 1 -0 -1 -1 -1 -1 -2 -2 -1 -1 -1 -1 -2 -2 -2 -2 -2 -2 -2 -2 -1 -1 -1 -1 -1 -2 -1
3 4 7 10 13 15 14 12 12 10 10 9 10 9 8 8 7 5 4 2 3 2 1 -0 -1 -1 -1 -1 -1 -1 -1 -1 -1 -1 -2 -2 -2 -2 -1 -1 -1 -1 -2 -2 -2 -1 -1 -1 -1
5 7 10 12 13 12 12 11 10 10 10 9 9 11 9 7 6 5 4 3 3 2 1 -1 -1 -1 -1 -1 -1 -1 -1 -1 -2 -2 -1 -1 -0 -0 0 0 0 0 -0 0 0 1 1 1 1
7 9 12 14 14 13 11 11 10 10 11 10 9 11 10 8 6 5 4 4 4 3 2 0 -2 -2 -2 -2 -2 -2 -2 -1 -1 -0 0 0 1 1 1 1 1 1 1 1 1 2 2 2 2
9 10 14 15 14 11 11 10 10 11 10 11 11 11 10 8 6 5 6 5 4 4 3 1 -1 -2 -2 -1 -1 -1 -1 -0 0 1 1 1 2 2 2 2 1 2 2 2 2 2 2 2 2
10 11 14 15 13 12 11 10 11 10 11 10 9 11 10 10 7 6 7 6 5 5 5 4 3 1 -0 -0 -0 0 1 1 1 2 2 3 3 3 3 3 3 2 2 2 3 3 3 3 4
9 11 14 13 13 12 11 10 10 10 10 9 8 11 11 10 8 8 8 8 7 6 6 6 6 5 4 3 1 1 2 2 3 3 4 4 5 5 5 5 4 4 3 3 4 4 5 5 5
9 14 15 13 12 12 11 11 10 10 11 10 8 10 9 8 9 10 11 10 9 7 7 7 7 7 7 6 4 3 3 3 4 5 5 7 10 9 8 5 5 5 5 5 5 6 6 7 8
10 14 13 11 11 12 11 11 11 11 12 11 10 10 9 9 9 10 11 11 11 9 9 8 8 8 8 6 7 8 8 9 10 10 10 11 11 11 9 7 7 7 7 7 7 8 9 10 12
10 12 10 9 10 10 11 11 10 11 11 11 10 10 10 10 10 10 10 10 9 9 9 8 9 9 9 8 10 11 11 11 11 12 11 12 11 11 12 13 13 13 12 13 13 13 13 13 13
11 9 9 8 9 10 11 10 11 11 8 9 9 9 10 10 10 10 10 11 11 12 10 9 9 9 10 10 10 11 11 12 12 12 12 12 13 13 13 14 14 14 14 15 14 14 14 14 13
10 10 9 9 9 10 9 10 11 11 9 9 9 10 10 10 10 9 9 10 11 12 11 10 11 9 10 11 11 11 11 11 12 13 12 12 13 14 14 14 14 15 15 15 15 15 15 14 14
11 10 9 9 9 9 10 11 11 9 10 9 9 10 10 9 9 10 11 10 11 11 11 11 11 10 10 11 11 11 11 12 12 13 13 13 13 14 14 14 15 15 15 15 15 15 15 15 15
10 11 11 10 10 10 10 12 11 8 10 9 10 10 10 9 9 9 9 9 10 10 10 11 11 11 11 11 11 12 12 11 12 13 13 13 13 14 14 15 15 15 15 15 15 16 16 16 15
12 13 14 12 11 10 10 13 10 9 10 10 10 10 10 10 9 8 8 9 9 9 11 11 10 11 11 11 11 12 12 13 12 13 13 13 13 14 15 15 15 16 16 16 16 16 17 17 17
15 17 16 13 11 11 12 13 10 10 11 11 11 10 10 9 10 9 8 9 9 9 10 11 11 11 11 11 12 13 13 13 13 14 14 14 14 14 15 16 16 16 16 16 16 17 17 17 17
17 17 15 15 13 13 13 13 10 10 12 12 12 12 11 10 9 8 8 8 9 9 10 10 11 11 11 12 13 14 14 14 14 14 14 15 15 15 16 16 16 16 16 17 17 17 17 18 18
16 16 16 14 12 13 13 12 11 9 11 12 11 10 10 11 8 8 9 9 9 9 10 11 11 12 12 13 14 14 14 14 15 15 14 15 15 15 16 16 16 17 17 17 17 17 18 18 18
14 15 15 13 12 14 13 13 12 11 10 9 10 10 9 9 8 8 10 10 10 10 10 11 11 12 12 12 12 13 13 15 14 14 15 15 15 15 16 16 17 17 18 18 18 18 19 18 18
15 16 15 15 14 15 16 16 15 13 11 10 9 9 9 8 9 8 11 11 10 10 11 11 11 12 12 12 13 16 15 16 16 16 15 15 15 15 16 17 17 18 18 18 19 18 19 19 19
16 13 14 14 17 18 16 20 17 15 13 12 11 10 10 9 9 8 11 12 11 10 11 11 11 12 12 13 14 14 14 14 14 14 15 16 16 16 16 17 17 18 18 19 18 18 19 19 19
14 14 15 16 18 19 18 19 17 14 15 13 11 11 10 9 9 10 12 11 10 10 11 11 12 12 12 13 13 14 14 14 16 16 16 16 17 16 17 17 18 18 18 18 18 19 19 19 19
14 15 16 18 18 20 18 18 19 18 15 14 12 11 11 10 9 12 11 11 11 12 12 12 13 13 13 14 14 14 14 16 17 16 16 16 16 17 17 17 18 18 18 19 19 19 19 19 19
14 16 20 22 22 21 17 19 16 15 14 13 12 11 11 10 10 13 13 13 13 13 13 13 14 14 14 14 13 13 13 15 15 16 15 16 17 17 17 18 18 18 19 19 19 19 19 19 19
16 15 20 24 21 18 19 20 15 13 12 12 12 11 11 11 13 12 12 13 13 13 13 13 14 14 14 14 13 13 13 14 14 15 15 16 16 16 16 17 18 19 19 19 19 19 19 19 19
17 18 14 19 26 23 17 16 13 14 13 13 13 12 13 13 13 12 13 13 13 12 12 13 14 13 14 14 13 13 13 14 15 15 15 15 16 16 17 17 18 19 19 19 19 19 19 19 19
14 14 18 19 24 25 20 19 16 14 13 13 14 13 13 13 13 12 12 13 13 13 12 13 13 13 13 13 13 14 14 14 14 15 16 16 16 17 18 18 18 19 19 19 19 19 19 19 19
17 17 16 16 17 19 19 17 11 12 14 14 12 13 13 14 13 12 12 12 13 13 13 13 13 13 14 14 13 14 15 15 15 16 16 17 17 18 18 18 18 19 19 19 20 20 20 20 20
14 14 15 17 18 17 16 16 10 10 11 14 13 13 13 13 13 12 12 12 12 13 13 13 13 13 13 14 14 14 15 16 16 17 17 17 17 18 18 18 19 19 19 20 20 20 20 20 20